Location: *
(34.8620°S, 39.3380°E)
Time: 10:11:41
(UTC+00:00)

Lacrosse 4 Rocket - Pass Details

Date: 27 July 2021
Orbit: 542 x 615 km, 68.0° (Epoch: 22 September)

Event Time Altitude Azimuth Distance (km) Brightness Sun altitude
Exits shadow 02:56:00 27° 220° (SW) 1,206 2.6 -17.4°
Maximum altitude 02:58:19 62° 292° (WNW) 696 1.5 -17.0°
Drops below altitude 10° 03:02:40 10° 12° (NNE) 1,946 4.4 -16.1°
Sets 03:04:53 0° 15° (NNE) 2,830 5.3 -15.7°
